TimeCST,TemperatureF,Dew PointF,Humidity,Sea Level PressureIn,VisibilityMPH,Wind Direction,Wind SpeedMPH,Gust SpeedMPH,PrecipitationIn,Events,Conditions,WindDirDegrees,DateUTC
12:15 AM,40.6,26.6,57,30.19,10.0,West,4.6,-,N/A,,Clear,260,2013-02-01 06:15:00
12:35 AM,39.6,26.6,60,30.21,10.0,West,3.5,-,N/A,,Clear,270,2013-02-01 06:35:00
12:55 AM,39.6,27.0,61,30.22,10.0,WNW,5.8,-,N/A,,Clear,290,2013-02-01 06:55:00
1:15 AM,40.1,29.1,65,30.23,10.0,NW,11.5,19.6,N/A,,Clear,320,2013-02-01 07:15:00
1:35 AM,39.6,31.3,72,30.22,10.0,WNW,8.1,-,N/A,,Clear,300,2013-02-01 07:35:00
1:55 AM,38.5,31.3,75,30.23,10.0,WNW,5.8,20.7,N/A,,Scattered Clouds,300,2013-02-01 07:55:00
2:15 AM,37.2,30.7,77,30.23,10.0,WNW,6.9,-,N/A,,Mostly Cloudy,300,2013-02-01 08:15:00
2:35 AM,36.9,30.6,78,30.25,10.0,NW,16.1,21.9,N/A,,Overcast,310,2013-02-01 08:35:00
2:55 AM,35.4,29.5,79,30.26,10.0,NNW,13.8,21.9,N/A,,Overcast,340,2013-02-01 08:55:00
3:15 AM,32.9,26.4,77,30.28,10.0,NNW,9.2,21.9,N/A,,Mostly Cloudy,330,2013-02-01 09:15:00
3:35 AM,31.3,18.5,59,30.28,10.0,NNW,9.2,19.6,N/A,,Scattered Clouds,330,2013-02-01 09:35:00
3:55 AM,29.8,14.4,53,30.29,10.0,NW,8.1,17.3,N/A,,Clear,320,2013-02-01 09:55:00
4:15 AM,28.9,13.6,53,30.30,10.0,NNW,8.1,-,N/A,,Clear,330,2013-02-01 10:15:00
4:35 AM,28.4,13.6,54,30.31,10.0,NW,11.5,18.4,N/A,,Clear,320,2013-02-01 10:35:00
4:55 AM,28.0,13.8,55,30.32,10.0,NNW,6.9,-,N/A,,Clear,330,2013-02-01 10:55:00
5:15 AM,27.5,13.5,56,30.33,10.0,NW,6.9,-,N/A,,Clear,320,2013-02-01 11:15:00
5:35 AM,26.8,11.7,53,30.34,10.0,NNW,8.1,16.1,N/A,,Clear,330,2013-02-01 11:35:00
5:55 AM,26.4,12.2,55,30.36,10.0,NW,6.9,-,N/A,,Clear,320,2013-02-01 11:55:00
6:15 AM,25.7,13.1,59,30.36,10.0,NW,10.4,16.1,N/A,,Clear,320,2013-02-01 12:15:00
6:35 AM,25.2,13.8,62,30.36,10.0,NNW,8.1,-,N/A,,Clear,340,2013-02-01 12:35:00
7:15 AM,24.6,13.3,62,30.40,10.0,NNW,8.1,-,N/A,,Clear,330,2013-02-01 13:15:00
7:35 AM,25.0,12.2,58,30.40,10.0,North,6.9,-,N/A,,Clear,350,2013-02-01 13:35:00
7:55 AM,25.2,11.5,56,30.40,10.0,North,9.2,18.4,N/A,,Clear,350,2013-02-01 13:55:00
8:15 AM,25.3,11.1,55,30.41,10.0,North,10.4,17.3,N/A,,Clear,360,2013-02-01 14:15:00
8:35 AM,25.5,10.9,54,30.42,10.0,North,9.2,-,N/A,,Clear,350,2013-02-01 14:35:00
8:55 AM,26.1,11.8,55,30.43,10.0,North,9.2,-,N/A,,Clear,360,2013-02-01 14:55:00
9:15 AM,26.6,12.4,55,30.44,10.0,North,8.1,-,N/A,,Clear,360,2013-02-01 15:15:00
9:35 AM,27.1,12.6,54,30.45,10.0,NW,5.8,-,N/A,,Clear,320,2013-02-01 15:35:00
9:55 AM,28.2,13.1,53,30.45,10.0,NNE,6.9,-,N/A,,Clear,20,2013-02-01 15:55:00
10:15 AM,28.8,13.1,52,30.46,10.0,NNE,5.8,-,N/A,,Clear,20,2013-02-01 16:15:00
10:35 AM,29.8,12.9,49,30.45,10.0,NW,8.1,-,N/A,,Clear,310,2013-02-01 16:35:00
10:55 AM,30.9,13.3,48,30.45,10.0,NW,5.8,-,N/A,,Clear,310,2013-02-01 16:55:00
11:15 AM,31.5,12.4,45,30.45,10.0,NW,6.9,-,N/A,,Clear,310,2013-02-01 17:15:00
11:35 AM,31.8,12.4,45,30.44,10.0,NNW,4.6,-,N/A,,Clear,340,2013-02-01 17:35:00
11:55 AM,32.2,12.7,45,30.44,10.0,North,9.2,-,N/A,,Clear,350,2013-02-01 17:55:00
12:15 PM,32.5,13.1,45,30.44,10.0,West,8.1,-,N/A,,Clear,280,2013-02-01 18:15:00
12:35 PM,33.4,12.7,42,30.43,10.0,WNW,8.1,-,N/A,,Clear,290,2013-02-01 18:35:00
12:55 PM,33.8,11.7,40,30.42,10.0,NNW,3.5,-,N/A,,Clear,330,2013-02-01 18:55:00
1:15 PM,34.3,11.5,39,30.42,10.0,WNW,5.8,-,N/A,,Clear,300,2013-02-01 19:15:00
1:35 PM,35.2,12.0,38,30.42,10.0,NW,6.9,-,N/A,,Clear,320,2013-02-01 19:35:00
1:55 PM,35.4,11.7,38,30.41,10.0,North,5.8,-,N/A,,Clear,350,2013-02-01 19:55:00
2:15 PM,35.8,11.3,36,30.40,10.0,WSW,4.6,-,N/A,,Clear,250,2013-02-01 20:15:00
2:35 PM,35.6,11.3,37,30.40,10.0,NNW,3.5,-,N/A,,Clear,330,2013-02-01 20:35:00
2:55 PM,36.3,12.2,37,30.40,10.0,West,5.8,-,N/A,,Clear,280,2013-02-01 20:55:00
3:15 PM,37.2,11.8,35,30.40,10.0,NNW,6.9,-,N/A,,Clear,330,2013-02-01 21:15:00
3:35 PM,36.3,11.1,35,30.40,10.0,NW,4.6,-,N/A,,Clear,320,2013-02-01 21:35:00
3:55 PM,36.7,11.7,36,30.40,10.0,NNW,3.5,-,N/A,,Clear,330,2013-02-01 21:55:00
4:15 PM,36.3,11.3,36,30.39,10.0,NW,5.8,-,N/A,,Clear,320,2013-02-01 22:15:00
4:35 PM,35.4,10.9,36,30.40,10.0,NW,3.5,-,N/A,,Clear,320,2013-02-01 22:35:00
4:55 PM,34.5,10.8,37,30.39,10.0,Calm,Calm,-,N/A,,Clear,0,2013-02-01 22:55:00
5:15 PM,32.5,10.9,41,30.39,10.0,Calm,Calm,-,N/A,,Clear,0,2013-02-01 23:15:00
5:35 PM,31.6,10.6,42,30.39,10.0,Calm,Calm,-,N/A,,Clear,0,2013-02-01 23:35:00
5:55 PM,29.7,14.2,53,30.39,10.0,Calm,Calm,-,N/A,,Clear,0,2013-02-01 23:55:00
6:15 PM,28.4,13.5,54,30.39,10.0,Calm,Calm,-,N/A,,Clear,0,2013-02-02 00:15:00
6:35 PM,27.5,16.3,63,30.39,10.0,Calm,Calm,-,N/A,,Clear,0,2013-02-02 00:35:00
6:55 PM,27.3,16.5,64,30.39,10.0,Calm,Calm,-,N/A,,Clear,0,2013-02-02 00:55:00
7:15 PM,26.4,18.3,71,30.38,10.0,Calm,Calm,-,N/A,,Clear,0,2013-02-02 01:15:00
7:55 PM,25.5,18.9,76,30.38,10.0,Calm,Calm,-,N/A,,Clear,0,2013-02-02 01:55:00
8:15 PM,25.2,19.4,79,30.38,10.0,Calm,Calm,-,N/A,,Clear,0,2013-02-02 02:15:00
8:35 PM,25.2,18.7,76,30.38,10.0,Calm,Calm,-,N/A,,Clear,0,2013-02-02 02:35:00
8:55 PM,25.0,18.9,78,30.39,10.0,Calm,Calm,-,N/A,,Clear,0,2013-02-02 02:55:00
9:15 PM,24.6,19.0,79,30.39,10.0,Calm,Calm,-,N/A,,Clear,0,2013-02-02 03:15:00
9:35 PM,24.1,18.3,79,30.38,10.0,Calm,Calm,-,N/A,,Clear,0,2013-02-02 03:35:00
9:55 PM,23.5,18.9,82,30.38,10.0,Calm,Calm,-,N/A,,Clear,0,2013-02-02 03:55:00
10:15 PM,23.9,18.3,79,30.38,10.0,Calm,Calm,-,N/A,,Clear,0,2013-02-02 04:15:00
10:35 PM,23.5,18.7,82,30.38,10.0,Calm,Calm,-,N/A,,Clear,0,2013-02-02 04:35:00
10:55 PM,23.2,18.0,80,30.37,10.0,Calm,Calm,-,N/A,,Clear,0,2013-02-02 04:55:00
11:15 PM,22.8,18.7,84,30.36,10.0,Calm,Calm,-,N/A,,Clear,0,2013-02-02 05:15:00
11:55 PM,28.0,15.3,59,30.34,10.0,SE,4.6,-,N/A,,Clear,130,2013-02-02 05:55:00